User: anonymous   Login
Location: Houston
(29.7630°N, 95.3630°W)
Time: 15:18:07
(UTC-06:00)
Language:

Saudisat 1A - Orbit

View from above orbital plane
View from above orbital plane
View from above satellite
View from above satellite

Ground track
Ground track

The orbit data is extracted from the following two-line orbital elements,

1 26546U 00057B   17324.14368049  .00000135  00000-0  29671-4 0  9995
2 26546  64.5542 207.1341 0013541 218.7181 141.2960 14.90637903929905
Epoch (UTC): 20 November 2017 03:26:53
Eccentricity: 0.0013541
inclination: 64.5542°
perigee height: 586 km
apogee height: 605 km
right ascension of ascending node: 207.1341°
argument of perigee: 218.7181°
revolutions per day: 14.90637903
mean anomaly at epoch: 141.2960°
orbit number at epoch: 92990

The dashed part of the orbit path shows where the satellite is in the earth's shadow,  

DLR